Tracking 19574 objects as of 15-Feb-2019
HD Live streaming from Space Station
objects crossing your sky now

VANGUARD 3

Track VANGUARD 3 now!
10-day predictions
VANGUARD 3 is classified as:


NORAD ID: 20
Int'l Code: 1959-007A
Perigee: 517.0 km
Apogee: 3,269.4 km
Inclination: 33.3 °
Period: 124.6 minutes
Semi major axis: 8264 km
RCS: 0.654 m2 (medium)
Launch date: September 18, 1959
Source: United States (US)
Launch site: AIR FORCE EASTERN TEST RANGE (AFETR)
aabbcc
Your satellite tracking list
Your tracking list is empty




NASA's NSSDC Master Catalog

Two Line Element Set (TLE):
1    20U 59007A   19046.53214142  .00000139  00000-0  45708-4 0  9996
2    20  33.3465 120.1655 1665234 198.6145 154.5645 11.55590045174174
Source of the keplerian elements: AFSPC